{"data":{"norad_id":43160,"epoch":"2026-05-25T04:34:06.244320Z","epoch_age_seconds":51842,"freshness":"FRESH","line1":"1 43160U 18008F   26145.19035005  .00005934  00000+0  18621-3 0  9993","line2":"2 43160  97.1816 165.0775 0007271 142.6772 217.4977 15.33377923461422","mean_motion":15.33377923,"eccentricity":0.0007271,"inclination_deg":97.1816,"raan_deg":165.0775,"arg_perigee_deg":142.6772,"mean_anomaly_deg":217.4977,"bstar":0.00018621,"rev_number":46142,"period_min":93.910312545957,"perigee_km":460.76657074227,"apogee_km":470.71894068302,"semimajor_km":6843.8797557126,"source":"CELESTRAK","updated_at":"2026-05-25T13:37:55.785449Z"}}